Location: Melbourne
(37.8170°S, 144.9670°E)
Time: 20:48:21
(UTC+10:00)

Daily predictions for brighter satellites

Satellite Brightness Start Highest point End
(mag) Time Altitude Azimuth Time Altitude Azimuth Time Altitude Azimuth
Atlas Centaur 2 3.5 18:12:03 10° WNW 18:19:03 42° N 18:24:44 10° ENE
CZ-2C R/B 2.9 18:18:03 10° SSE 18:22:41 39° E 18:27:23 10° NNE
Cosmos 1833 Rocket 4.3 18:18:17 10° NW 18:23:29 36° WSW 18:28:44 10° S
Cosmos 2322 Rocket 3.0 18:18:26 10° S 18:23:30 32° ESE 18:28:29 10° ENE
SJ-12 4.1 18:20:52 10° SSE 18:24:54 50° E 18:28:54 10° N
GPS 2-05 Rocket1 3.6 18:21:55 10° W 18:25:26 51° N 18:29:02 10° ENE
Cosmos 1544 Rocket 3.6 18:22:44 10° S 18:27:09 86° ESE 18:31:31 10° N
ISS -1.7 18:24:54 10° N 18:27:24 20° NE 18:29:57 10° E
AQUARIUS 4.2 18:25:26 10° SSE 18:29:58 61° E 18:34:26 10° N
Cosmos 1812 2.9 18:29:12 10° N 18:33:00 50° E 18:36:51 10° SSE
MOS 1 4.3 18:30:46 10° SSE 18:36:31 85° ENE 18:42:12 10° NNW
Cosmos 1484 Rocket 4.0 18:36:05 10° SE 18:39:16 23° E 18:42:21 10° NNE
Cosmos 2360 4.2 18:35:43 10° SSW 18:41:30 83° ESE 18:47:13 10° NNE
SL-23 DEB 4.0 18:38:51 10° SW 18:42:26 78° SE 18:48:05 10° NE
Cosmos 1503 Rocket 4.1 18:37:23 10° N 18:42:39 59° ENE 18:47:55 10° SSE
Lacrosse 4 Rocket 3.1 18:40:45 10° SSE 18:43:08 15° SE 18:44:27 13° ESE
Meteor 1-12 Rocket 4.2 18:41:43 10° S 18:47:27 73° E 18:53:06 10° NNE
SL-8 R/B 3.8 18:44:09 10° WNW 18:49:00 80° SSW 18:53:37 11° SE
Cosmos 44 4.3 18:48:52 10° NNE 18:51:59 20° ENE 18:53:20 17° E
Helios 1B rocket 4.1 18:50:36 10° NNW 18:54:27 38° W 18:58:22 10° SSW
IRIS 4.5 18:51:39 10° WSW 18:54:34 88° S 18:57:55 17° ENE
Cosmos 1727 Rocket 4.0 18:49:41 10° N 18:56:01 73° E 19:02:25 10° S
SMAP 3.5 18:53:28 10° S 18:58:10 69° WSW 19:02:49 10° NNW
MONITOR-E 4.2 18:56:35 10° SSE 18:59:54 83° E 19:03:10 10° N
Cosmos 44 Rocket 3.1 18:56:47 10° NNW 19:01:22 64° ENE 19:05:59 10° SE
GEOS 3 Rocket 3.7 18:58:42 10° NE 19:03:49 57° SE 19:09:02 10° SSW
Blok-2BL 3.4 19:05:07 10° N 19:07:53 35° NE 19:07:53 35° NE
Cosmos 1153 Rocket 4.5 19:09:10 10° S 19:15:39 79° E 19:21:58 10° N
Cosmos 836 Rocket 4.4 19:14:07 10° SSW 19:19:25 82° ESE 19:24:41 10° NNE
Abrixas 3.4 19:18:07 10° NNW 19:20:35 34° NNE 19:20:35 34° NNE
SL-16 R/B 2.2 19:16:03 10° SSW 19:21:48 89° ESE 19:27:30 10° NNE
Cosmos 1763 Rocket 4.2 19:17:17 10° SSW 19:22:31 55° WNW 19:27:35 10° N
COSMOS 2455 4.4 19:20:40 10° S 19:24:25 17° SE 19:24:35 17° SE
Cosmos 1975 3.6 19:20:37 10° SSW 19:24:40 55° W 19:28:41 10° N
Cosmos 1900 4.4 19:20:08 10° SSW 19:25:17 67° ESE 19:28:15 25° NE
ATLAS 3B R/B 3.7 19:20:13 10° SSW 19:26:21 30° SE 19:28:24 26° ESE
OAO 3 Rocket 3.5 19:22:18 10° WNW 19:27:09 58° N 19:28:52 37° ENE
MSX 3.8 19:21:27 10° SSE 19:27:19 89° ENE 19:33:05 10° NNW
Cosmos 1500 3.3 19:25:43 10° S 19:29:36 76° W 19:33:24 10° N
Cosmos 1802 Rocket 4.1 19:26:43 10° S 19:32:51 53° E 19:39:01 10° NNE
Cosmos 2360 Rocket 2.5 19:28:15 10° S 19:33:39 43° ESE 19:34:49 38° E
BREEZE M DEB (TANK) 4.5 19:16:18 10° WSW 19:33:49 44° S 19:36:50 27° ESE
SJ-6B 2.6 19:32:17 10° SSE 19:36:16 65° E 19:40:05 10° N
Cosmos 2016 Rocket 4.1 19:33:40 10° S 19:39:40 49° E 19:42:05 32° NE
Cosmos 1000 Rocket 4.4 19:33:44 10° N 19:39:56 71° E 19:46:10 10° SSE
Cosmos 968 Rocket 4.2 19:39:57 10° N 19:43:11 34° NNE 19:43:11 34° NNE
Meteor 1-13 Rocket 4.5 19:39:51 10° NNW 19:45:23 68° W 19:50:58 10° S
Aureole 1 Rocket 3.9 19:41:09 10° S 19:46:01 49° ESE 19:46:40 47° E
SAR-Lupe-4 4.2 19:42:33 10° S 19:46:08 56° WSW 19:49:40 10° NNW
Cosmos 1833 4.2 19:41:47 10° NNW 19:47:35 88° ENE 19:53:28 10° SSE
Meteor 1-19 Rocket 4.2 19:43:15 10° N 19:48:50 86° W 19:54:33 10° S
Cosmos 2219 3.9 19:43:36 10° N 19:47:19 35° NE 19:47:19 35° NE
ATLAS CENTAUR R/B 3.5 19:49:01 10° WSW 19:51:01 16° WNW 19:51:18 16° WNW
Cosmos 2173 Rocket 3.9 19:45:00 10° S 19:51:25 85° E 19:57:49 10° N
Cosmos 2219 Rocket 4.2 19:48:32 10° SSE 19:49:49 13° SSE 19:49:49 13° SSE
Cosmos 1025 Rocket 3.1 19:49:29 10° NNW 19:53:45 73° W 19:58:06 10° S
IDEFIX/ARIANE 42P 4.4 19:49:19 10° S 19:53:56 31° WSW 19:58:29 10° NW
Cosmos 540 Rocket 3.4 19:48:56 10° SSW 19:54:12 87° WNW 19:56:13 39° NNE
ATLAS 2AS CENTAUR R/B 2.3 19:49:56 10° NNW 19:56:33 80° ENE 19:59:29 34° SE
NOAA 12 4.0 19:55:36 10° SSE 20:01:00 89° E 20:06:18 10° NNW
ISS -1.4 20:00:36 10° WNW 20:02:46 30° WSW 20:02:46 30° WSW
ERBS 4.4 20:02:02 10° SW 20:03:38 24° SSW 20:03:38 24° SSW
Cosmos 2322 Rocket 3.7 20:02:26 10° SW 20:07:29 34° WNW 20:12:30 10° NNW
Atlas Centaur 2 3.8 20:02:43 10° WNW 20:07:31 22° NNW 20:09:08 19° N
Cosmos 2100 Rocket 4.4 20:02:38 10° SSW 20:09:01 63° W 20:15:18 10° N
Cosmos 1606 Rocket 4.1 20:04:50 10° SSW 20:08:22 55° SSW 20:08:22 55° SSW
Cosmos 1743 4.0 20:08:42 10° SSW 20:12:26 41° W 20:12:34 40° W
Centaur D AC-29 3.0 20:08:37 10° NW 20:12:29 34° NNE 20:12:30 34° NNE
Meteor 2-4 Rocket 4.0 20:08:45 10° NNW 20:14:36 72° W 20:20:24 10° S
Cosmos 2237 Rocket 4.5 20:11:14 10° SSE 20:11:36 11° SSE 20:11:36 11° SSE
Cosmos 2322 3.6 20:09:04 10° SSW 20:14:51 90° ESE 20:15:01 86° NNE
Meteor 1-15 Rocket 4.3 20:13:27 10° S 20:18:50 73° SSE 20:18:50 73° SSE
Meteor 2-9 Rocket 4.2 20:14:50 10° S 20:20:47 85° W 20:21:00 82° NW
Cosmos 2333 Rocket 4.3 20:17:19 10° S 20:18:24 14° SSE 20:18:24 14° SSE
Lacrosse 4 Rocket 2.8 20:18:09 10° SW 20:20:52 35° WSW 20:20:52 35° WSW
CZ-4C R/B 4.0 20:20:41 10° SSW 20:23:22 20° SSE 20:23:22 20° SSE
SEDSat Delta rocket 4.5 20:22:45 10° WNW 20:27:48 42° NNW 20:27:48 42° NNW
Cosmos 371 Rocket 4.1 20:24:37 10° SSW 20:28:49 48° W 20:28:49 48° W
COSMOS 2428 3.9 20:33:10 10° SSW 20:36:25 35° S 20:36:25 35° S
USA 184 4.3 20:31:46 10° SSW 20:39:27 65° ESE 21:13:58 10° NE
Cosmos 1725 Rocket 4.3 20:34:50 10° S 20:39:49 58° SSW 20:39:49 58° SSW
COSMOS 2455 4.5 21:05:05 10° SSW 21:07:46 28° SSW 21:07:46 28° SSW
Cosmos 2360 Rocket 4.2 21:12:53 10° SW 21:16:39 23° W 21:16:39 23° W
ATLAS 3B R/B 3.5 21:10:22 10° SW 21:15:41 50° WSW 21:15:41 50° WSW
